星链-31738 (STARLINK-31738 )

导读 | 豆包AI

STARLINK-31738是美国太空探索技术公司星链互联网卫星星座的一员,于2024年4月18日发射升空。星链计划旨在通过近地轨道卫星群为全球提供高速互联网接入服务,该卫星入轨后承担全球偏远地区网络覆盖、热点区域带宽补充等相关服务任务,是星链星座低轨组网部署的重要组成节点。

Basic Information
目录编号:
59535
目录名称:
STARLINK-31738
国际标识:
2024-074B
轨道中心:
EARTH
卫星名称:
星链-31738
卫星全名:
星链-31738 (STARLINK-31738 )
卫星状态:
在轨 (已飞行743 天)
发射日期:
2024-04-18 UTC
国别 :
美国 (US)
星等 :
--
Orbit Information
数据来源 国际轨道数据 AOE轨道数据
星历时间 2026-04-30T20:21:21+0800
13小时前
查看轨道信息
2026-04-26T17:00:00+0800
4天前
查看轨道信息
半长轴 6861.212km 6861.183km
偏心率 0.0001212 0.0001522
轨道倾角 43.006° 43.004°
近地点辐角 255.864° 252.212°
升交点赤经 47.013° 70.393°
平近点角 104.208° 355.172°
近地点 482.243km 482.001km
远地点 483.907km 484.091km
周期 94.267分钟 94.267分钟
每日圈数 15.275714 15.275813
Detailed Information
固有亮度:
5
最大亮度:
1.5
卫星平台:
Starlink v2.0 mini
覆盖范围:
全球
运营商:
太空探索技术公司
运营商所在国:
美国
制造商(研发单位):
太空探索技术公司
制造商所在国:
美国
使用方式:
暂无
Satellite Introduction
星链(Starlink)计划是由太空探索技术公司(SpaceX)提出的一个巨型低轨卫星互联网星座项目,计划在2019年至2024年间在太空搭建由约1.2万颗卫星组成的“星链”网络,其中1584颗将部署在地球上空550千米处的近地轨道,并从2020年开始工作。该卫星仍在工作。
2D Orbit Map
3D Orbit Map
Orbit Altitude Analysis Chart
Orbit Inclination Analysis Chart
Orbit Comprehensive Analysis Chart
View Comprehensive Chart